Regional Weather Roundup
Issued by NWS

Home | Current Version | Previous Version | Graphics & Text | Print | Product List | Glossary On
Versions: 1 2 3 4 5 6 7 8 9 10 11 12 13 14 15 16 17 18 19 20 21 22 23 24 25 26 27 28 29 30 31 32 33 34 35 36 37 38 39 40 41 42 43 44 45 46 47 48 49 50
000
ASUS43 KBIS 040902
RWRND

NORTH DAKOTA REGIONAL WEATHER ROUNDUP
NATIONAL WEATHER SERVICE BISMARCK ND
400 AM CDT TUE AUG 04 2015

NOTE: "FAIR" INDICATES FEW OR NO CLOUDS BELOW 12,000 FEET WITH NO
SIGNIFICANT WEATHER AND/OR OBSTRUCTIONS TO VISIBILITY.


NDZ001>003-009>011-017-041000-
NORTHWEST NORTH DAKOTA

CITY           SKY/WX    TMP DP  RH WIND       PRES   REMARKS
WILLISTON      CLEAR     61  50  67 CALM      29.96F
MINOT          CLEAR     52  48  86 NW5       29.98R
MINOT AFB      CLEAR     49  47  93 CALM      29.97R
$$

NDZ018>021-031>035-040>046-041000-
SOUTHWEST NORTH DAKOTA

CITY           SKY/WX    TMP DP  RH WIND       PRES   REMARKS
BISMARCK       CLEAR     53  49  86 CALM      29.98S
DICKINSON      PTCLDY    54  48  80 E9        29.96F
GARRISON         N/A     54  51  90 VRB3      29.98S
HETTINGER ARPT MOCLDY    59  50  72 E5        29.97F
$$

NDZ004>008-012>016-024-026-027-054-041000-
NORTHEAST NORTH DAKOTA

CITY           SKY/WX    TMP DP  RH WIND       PRES   REMARKS
GRAND FORKS    CLEAR     48  46  93 NW5       29.95R
GRND FRKS AFB  CLEAR     51  48  90 NW6       29.96R
DEVILS LAKE    CLEAR     55  46  71 W3        29.97S
$$

NDZ022-023-025-028>030-036>039-047>053-041000-
SOUTHEAST NORTH DAKOTA

CITY           SKY/WX    TMP DP  RH WIND       PRES   REMARKS
FARGO          CLEAR     53  48  83 N3        29.95S
JAMESTOWN      CLEAR     53  51  93 CALM      29.96F
$$




USA.gov is the U.S. government's official web portal to all federal, state and local government web resources and services.